User: anonymous
Location: Brno
(49.2000°N, 16.6330°E)
Time: 03:54:27
(UTC+02:00)
Language:

RESURS DK-1 - Orbit

View from above orbital plane
View from above orbital plane
View from above satellite
View from above satellite

Ground track
Ground track

The orbit data is extracted from the following two-line orbital elements,

1 29228U 06021A   14262.88887390  .00000680  00000-0  60938-4 0  2401
2 29228 069.9375 123.7409 0001832 066.2685 293.8627 15.00810315457789
Epoch (UTC): 19 September 2014 21:19:58
Eccentricity: 0.0001832
inclination: 69.9375°
perigee height: 563 km
apogee height: 565 km
right ascension of ascending node: 123.7409°
argument of perigee: 66.2685°
revolutions per day: 15.00810315
mean anomaly at epoch: 293.8627°
orbit number at epoch: 45778

The dashed part of the orbit path shows where the satellite is in the earth's shadow,  

DLR